Location: Borovka
(49.7741°N, 14.5280°E)
Time: 15:54:26
(UTC+00:00)

Thor Agena Rocket - Pass Details

Date: 21 February 2026
Orbit: 755 x 801 km, 99.1° (Epoch: 7 March)

Event Time Altitude Azimuth Distance (km) Brightness Sun altitude
Rises 18:12:21 0° 219° (SW) 3,245 7.3 -17.1°
Reaches altitude 10° 18:16:03 10° 247° (WSW) 2,335 7.0 -17.7°
Maximum altitude 18:18:20 13° 274° (W) 2,149 7.0 -18.0°
Drops below altitude 10° 18:20:38 10° 300° (WNW) 2,356 7.0 -18.4°
Sets 18:24:26 0° 328° (NNW) 3,303 7.3 -19.0°
